軌道要素
Epoch 2016 Apr. 2.0 TT = JDT 2457480.5
T 2016 Apr. 7.86663 TT Rudenko
q 2.0331990 (2000.0) P Q
n 0.11277923 Peri. 50.42372 +0.89875651 -0.43816725
a 4.2427746 Node 335.55120 +0.38975038 +0.81481315
e 0.5207855 Incl. 2.17268 +0.20082675 +0.37959055
P 8.74
From 320 observations 1998 Sept. 14-2017 Feb. 2, mean residual 0".6.
|